OBJECT BH, 61790

Orbit data source: Space-Track

You're viewing an Uncataloged Satellite

Recently launched and/or uncataloged satellites may have evolving metadata. Metadata may include but not limited to: Owner, Maufacturer, Bus, Motor, and Mission.

OBJECT BH, 61790 is a satellite in SSO that was launched on Mon, 04 Nov 2024 UTC via a SOYUZ-2-1B launch vehicle from the Vostochny Cosmodrome (VOSTO). Unknown objects in Earth's orbit typically refer to objects detected orbiting the Earth but have not yet been identified or cataloged. These objects could be anything from previously untracked satellites, spent rocket stages, debris from satellite collisions, or even natural meteoroids temporarily captured by Earth's gravity.

Loading next visibility...
Identifier
61790, 2024-199BH
Orbit
SSO
Country
Flag of TBDTBD
Related business
Manufacturer
Sputniks
Mission
Operational Commercial Communications
Bus & Motor
CUBESAT 3U?, Unknown motor
Mass
3 kg wet, 3 kg dry
Launch date (UTC)
2024-11-04 (1 year ago)
Launch vehicle
SOYUZ-2-1B
Launch site
Vostochny Cosmodrome (VOSTO)
Object type
Unknown
Shape & HBR
Box, 0.1 m
Radar Cross Section
0.035 m², Small (<0.1 m²)

Expand to show TLE details & history
Last TLE update: 10 hours ago

TLE from 10 hours ago
0 OBJECT BH
1 61790U 24199BH  26061.80558072  .00003313  00000-0  29021-3 0  9995
2 61790  97.3323 267.9478 0007629  74.0873 286.1190 14.97295534116114
Epoch: 2026-03-02T19:20Z
TLE epoch observation values (Epoch: 2026-03-02T19:20:02.174Z)
Latitude
-0.00003°
Longitude
177.34503°
Altitude
576.849 km
Speed
7.573 km/s
True Right ascension
17h 51m 47s
True Declination
0° 00' 00"
Sunlit
Object was in daylight at epoch
Visualization orbit readout
Latitude
Unknown
Longitude
Unknown
Altitude
Unknown
Speed
Unknown
Apparent Right ascension
Unknown
Apparent Declination
Unknown
Sunlit
N/A
Visualization observer readout
Local Sidereal Time
08:58:19
Azimuth
Unknown
Elevation
Unknown
Doppler factor
Unknown
Orbital elements
Apogee altitude
577.552 km
Perigee altitude
566.947 km
Semi-major axis
6,950.387 km
Eccentricity
0.00076
Inclination
97.3323°
RAAN
267.9478°
Arg. of periapsis
74.0873°
True anomaly
286.03499°
Mean anomaly
286.119°
Eccentric anomaly
286.077°
Mean motion
3.74567 °/min
Orbital period
96.11 mins
BSTAR
0.00029021
Loading maneuver chart data...
Computing Atmospheric mass density...
Loading historical data...
Loading historical data...
Loading historical data...
Loading historical data...
Loading historical data...
Loading historical data...
Loading historical data...

Documentation

Showing up to 5 results
|